| time (UTC) | temp C | wind direction | speed KPH | gust KPH | rain 1hr cm | rain 24hr cm | rain mn cm | humidity % | barometer mb |
| 20260508002120 | 15 | 318 | 9.7 | 14.5 | 0.00 | 0.00 | 0.00 | 38 | 1006.9 |
| 20260508001619 | 15 | 24 | 6.4 | 17.7 | 0.00 | 0.00 | 0.00 | 38 | 1006.9 |
| 20260508001116 | 15 | 17 | 9.7 | 16.1 | 0.00 | 0.00 | 0.00 | 37 | 1006.9 |
| 20260508000612 | 16 | 265 | 3.2 | 11.3 | 0.00 | 0.00 | 0.00 | 38 | 1006.8 |
| 20260508000109 | 16 | 37 | 6.4 | 14.5 | 0.00 | 0.00 | 0.00 | 38 | 1006.6 |
| 20260507235606 | 16 | 22 | 4.8 | 9.7 | 0.00 | 0.00 | 0.00 | 38 | 1006.6 |
| 20260507235104 | 16 | 334 | 12.9 | 17.7 | 0.00 | 0.00 | 0.00 | 37 | 1006.5 |
| 20260507234600 | 16 | 14 | 6.4 | 14.5 | 0.00 | 0.00 | 0.00 | 37 | 1006.7 |
| 20260507234056 | 17 | 27 | 8.0 | 22.5 | 0.00 | 0.00 | 0.00 | 36 | 1006.4 |
| 20260507233553 | 17 | 167 | 3.2 | 4.8 | 0.00 | 0.00 | 0.00 | 35 | 1006.3 |
| 20260507233052 | 17 | 39 | 8.0 | 11.3 | 0.00 | 0.00 | 0.00 | 36 | 1006.2 |
| 20260507232548 | 17 | 0 | 8.0 | 20.9 | 0.00 | 0.00 | 0.00 | 36 | 1006.3 |
| 20260507232045 | 17 | 319 | 12.9 | 20.9 | 0.00 | 0.00 | 0.00 | 35 | 1005.9 |
| 20260507231541 | 17 | 5 | 6.4 | 16.1 | 0.00 | 0.00 | 0.00 | 36 | 1005.9 |
| 20260507231039 | 17 | 348 | 17.7 | 29.0 | 0.00 | 0.00 | 0.00 | 35 | 1005.9 |
| 20260507230535 | 17 | 92 | 3.2 | 17.7 | 0.00 | 0.00 | 0.00 | 36 | 1005.7 |
| 20260507230032 | 17 | 347 | 11.3 | 24.1 | 0.00 | 0.00 | 0.00 | 36 | 1005.8 |
| 20260507225527 | 17 | 286 | 4.8 | 12.9 | 0.00 | 0.00 | 0.00 | 37 | 1005.6 |
| 20260507225024 | 17 | 353 | 14.5 | 20.9 | 0.00 | 0.00 | 0.00 | 37 | 1005.7 |
| 20260507224519 | 18 | 351 | 17.7 | 24.1 | 0.00 | 0.00 | 0.00 | 36 | 1005.5 |
| 20260507224016 | 18 | 140 | 8.0 | 14.5 | 0.00 | 0.00 | 0.00 | 36 | 1005.3 |
| 20260507223512 | 18 | 151 | 3.2 | 11.3 | 0.00 | 0.00 | 0.00 | 35 | 1005.3 |
| 20260507223010 | 19 | 333 | 6.4 | 11.3 | 0.00 | 0.00 | 0.00 | 36 | 1005.2 |
| 20260507222507 | 18 | 359 | 11.3 | 16.1 | 0.00 | 0.00 | 0.00 | 37 | 1005.3 |
| 20260507222003 | 18 | 176 | 9.7 | 24.1 | 0.00 | 0.00 | 0.00 | 40 | 1005.0 |
| 20260507221459 | 17 | 299 | 6.4 | 11.3 | 0.00 | 0.00 | 0.00 | 48 | 1005.2 |
| 20260507220956 | 17 | 317 | 9.7 | 20.9 | 0.00 | 0.00 | 0.00 | 52 | 1004.9 |
| 20260507220454 | 17 | 138 | 3.2 | 4.8 | 0.00 | 0.00 | 0.00 | 55 | 1004.9 |
| 20260507215950 | 18 | 240 | 6.4 | 6.4 | 0.00 | 0.00 | 0.00 | 55 | 1004.7 |
| 20260507215447 | 17 | 146 | 6.4 | 11.3 | 0.00 | 0.00 | 0.00 | 57 | 1004.6 |
| 20260507214944 | 18 | 126 | 8.0 | 11.3 | 0.00 | 0.00 | 0.00 | 55 | 1004.8 |
| 20260507214442 | 17 | 187 | 3.2 | 6.4 | 0.00 | 0.00 | 0.00 | 56 | 1004.8 |
| 20260507213937 | 17 | 201 | 4.8 | 6.4 | 0.00 | 0.00 | 0.00 | 58 | 1004.6 |
| 20260507213434 | 17 | 147 | 6.4 | 9.7 | 0.00 | 0.00 | 0.00 | 58 | 1004.9 |
| 20260507212931 | 17 | 258 | 6.4 | 9.7 | 0.00 | 0.00 | 0.00 | 58 | 1004.7 |
| 20260507212426 | 17 | 133 | 6.4 | 12.9 | 0.00 | 0.00 | 0.00 | 59 | 1004.7 |
| 20260507211924 | 17 | 209 | 8.0 | 12.9 | 0.00 | 0.00 | 0.00 | 58 | 1004.6 |
| 20260507211420 | 17 | 213 | 6.4 | 11.3 | 0.00 | 0.00 | 0.00 | 56 | 1004.4 |
| 20260507210917 | 17 | 218 | 6.4 | 11.3 | 0.00 | 0.00 | 0.00 | 56 | 1004.7 |
| 20260507210414 | 17 | 242 | 8.0 | 14.5 | 0.00 | 0.00 | 0.00 | 55 | 1004.8 |
| 20260507205910 | 17 | 86 | 4.8 | 11.3 | 0.00 | 0.00 | 0.00 | 56 | 1004.7 |
| 20260507205408 | 17 | 332 | 9.7 | 12.9 | 0.00 | 0.00 | 0.00 | 55 | 1004.7 |
| 20260507204904 | 17 | 340 | 9.7 | 16.1 | 0.00 | 0.00 | 0.00 | 55 | 1004.7 |
| 20260507204400 | 18 | 268 | 16.1 | 20.9 | 0.00 | 0.00 | 0.00 | 55 | 1004.7 |
| 20260507203858 | 18 | 125 | 11.3 | 17.7 | 0.00 | 0.00 | 0.00 | 54 | 1004.5 |
| 20260507203356 | 18 | 180 | 3.2 | 11.3 | 0.00 | 0.00 | 0.00 | 53 | 1004.7 |
| 20260507202852 | 18 | 125 | 9.7 | 16.1 | 0.00 | 0.00 | 0.00 | 54 | 1004.5 |
| 20260507202349 | 19 | 260 | 9.7 | 12.9 | 0.00 | 0.00 | 0.00 | 52 | 1004.6 |
| 20260507201844 | 18 | 156 | 1.6 | 4.8 | 0.00 | 0.00 | 0.00 | 56 | 1004.8 |
| 20260507201340 | 18 | 240 | 11.3 | 14.5 | 0.00 | 0.00 | 0.00 | 53 | 1004.7 |
| 20260507200836 | 18 | 359 | 11.3 | 14.5 | 0.00 | 0.00 | 0.00 | 50 | 1004.7 |
| 20260507200333 | 18 | 197 | 1.6 | 3.2 | 0.00 | 0.00 | 0.00 | 52 | 1004.8 |
| 20260507195828 | 20 | 212 | 9.7 | 14.5 | 0.00 | 0.00 | 0.00 | 50 | 1005.0 |
| 20260507195326 | 19 | 164 | 0.0 | 3.2 | 0.00 | 0.00 | 0.00 | 50 | 1005.0 |
| 20260507194823 | 19 | 138 | 3.2 | 4.8 | 0.00 | 0.00 | 0.00 | 51 | 1005.1 |
| 20260507194319 | 17 | 170 | 6.4 | 9.7 | 0.00 | 0.00 | 0.00 | 52 | 1005.1 |
| 20260507193816 | 17 | 216 | 1.6 | 6.4 | 0.00 | 0.00 | 0.00 | 53 | 1005.2 |
| 20260507193313 | 17 | 144 | 1.6 | 12.9 | 0.00 | 0.00 | 0.00 | 54 | 1005.1 |
| 20260507192808 | 18 | 127 | 11.3 | 12.9 | 0.00 | 0.00 | 0.00 | 50 | 1005.4 |
| 20260507192306 | 17 | 297 | 6.4 | 9.7 | 0.00 | 0.00 | 0.00 | 54 | 1005.5 |
| 20260507191802 | 17 | 239 | 8.0 | 11.3 | 0.00 | 0.00 | 0.00 | 50 | 1005.4 |
| 20260507191259 | 17 | 269 | 11.3 | 14.5 | 0.00 | 0.00 | 0.00 | 52 | 1005.6 |
| 20260507190755 | 18 | 235 | 6.4 | 12.9 | 0.00 | 0.00 | 0.00 | 49 | 1005.5 |
| 20260507190254 | 17 | 209 | 4.8 | 11.3 | 0.00 | 0.00 | 0.00 | 53 | 1005.6 |
| 20260507185752 | 16 | 243 | 11.3 | 14.5 | 0.00 | 0.00 | 0.00 | 56 | 1005.9 |
| 20260507185249 | 17 | 251 | 9.7 | 12.9 | 0.00 | 0.00 | 0.00 | 52 | 1005.8 |
| 20260507184746 | 16 | 106 | 6.4 | 12.9 | 0.00 | 0.00 | 0.00 | 52 | 1005.7 |
| 20260507184244 | 18 | 129 | 8.0 | 11.3 | 0.00 | 0.00 | 0.00 | 51 | 1005.8 |
| 20260507183741 | 17 | 144 | 0.0 | 3.2 | 0.00 | 0.00 | 0.00 | 51 | 1005.8 |
| 20260507183237 | 16 | 125 | 8.0 | 11.3 | 0.00 | 0.00 | 0.00 | 54 | 1005.9 |
| 20260507182735 | 16 | 140 | 6.4 | 11.3 | 0.00 | 0.00 | 0.00 | 54 | 1006.0 |
| 20260507182230 | 16 | 264 | 8.0 | 12.9 | 0.00 | 0.00 | 0.00 | 55 | 1006.1 |
| 20260507181727 | 16 | 151 | 1.6 | 4.8 | 0.00 | 0.00 | 0.00 | 54 | 1005.9 |
| 20260507181223 | 16 | 166 | 3.2 | 4.8 | 0.00 | 0.00 | 0.00 | 54 | 1006.2 |
| 20260507180720 | 16 | 178 | 4.8 | 6.4 | 0.00 | 0.00 | 0.00 | 57 | 1006.0 |
| 20260507180217 | 16 | 146 | 3.2 | 6.4 | 0.00 | 0.00 | 0.00 | 54 | 1006.3 |
| 20260507175712 | 16 | 156 | 8.0 | 9.7 | 0.00 | 0.00 | 0.00 | 54 | 1006.3 |
| 20260507175210 | 16 | 156 | 4.8 | 6.4 | 0.00 | 0.00 | 0.00 | 53 | 1006.3 |
| 20260507174707 | 16 | 171 | 9.7 | 16.1 | 0.00 | 0.00 | 0.00 | 53 | 1006.5 |
| 20260507174205 | 16 | 119 | 6.4 | 11.3 | 0.00 | 0.00 | 0.00 | 54 | 1006.5 |
| 20260507173702 | 16 | 137 | 3.2 | 4.8 | 0.00 | 0.00 | 0.00 | 51 | 1006.6 |
| 20260507173159 | 16 | 181 | 1.6 | 1.6 | 0.00 | 0.00 | 0.00 | 51 | 1006.6 |
| 20260507172656 | 16 | 162 | 6.4 | 6.4 | 0.00 | 0.00 | 0.00 | 51 | 1006.8 |
| 20260507172153 | 16 | 164 | 3.2 | 4.8 | 0.00 | 0.00 | 0.00 | 51 | 1006.7 |
| 20260507171652 | 16 | 159 | 6.4 | 6.4 | 0.00 | 0.00 | 0.00 | 50 | 1006.8 |
| 20260507171150 | 17 | 109 | 3.2 | 4.8 | 0.00 | 0.00 | 0.00 | 48 | 1007.0 |
| 20260507170647 | 17 | 146 | 0.0 | 1.6 | 0.00 | 0.00 | 0.00 | 49 | 1006.8 |
| 20260507170144 | 17 | 159 | 1.6 | 4.8 | 0.00 | 0.00 | 0.00 | 48 | 1007.1 |
| 20260507165639 | 16 | 127 | 0.0 | 1.6 | 0.00 | 0.00 | 0.00 | 50 | 1007.3 |
| 20260507165136 | 17 | 65 | 3.2 | 6.4 | 0.00 | 0.00 | 0.00 | 49 | 1007.3 |
| 20260507164632 | 17 | 150 | 1.6 | 3.2 | 0.00 | 0.00 | 0.00 | 50 | 1007.3 |
| 20260507164129 | 16 | 119 | 4.8 | 6.4 | 0.00 | 0.00 | 0.00 | 51 | 1007.6 |
| 20260507163626 | 17 | 101 | 3.2 | 9.7 | 0.00 | 0.00 | 0.00 | 48 | 1007.2 |
| 20260507163124 | 16 | 152 | 6.4 | 6.4 | 0.00 | 0.00 | 0.00 | 49 | 1007.5 |
| 20260507162620 | 16 | 157 | 4.8 | 12.9 | 0.00 | 0.00 | 0.00 | 49 | 1007.7 |
| 20260507162116 | 16 | 117 | 6.4 | 12.9 | 0.00 | 0.00 | 0.00 | 50 | 1007.8 |
| 20260507161613 | 16 | 282 | 4.8 | 9.7 | 0.00 | 0.00 | 0.00 | 53 | 1007.9 |
| 20260507161109 | 15 | 181 | 3.2 | 12.9 | 0.00 | 0.00 | 0.00 | 51 | 1008.0 |
| 20260507160606 | 16 | 166 | 1.6 | 4.8 | 0.00 | 0.00 | 0.00 | 50 | 1008.0 |
| 20260507155557 | 15 | 114 | 1.6 | 6.4 | 0.00 | 0.00 | 0.00 | 54 | 1008.4 |
| 20260507155055 | 15 | 110 | 4.8 | 4.8 | 0.00 | 0.00 | 0.00 | 54 | 1008.5 |
| 20260507154551 | 15 | 137 | 4.8 | 11.3 | 0.00 | 0.00 | 0.00 | 51 | 1008.6 |
| 20260507154049 | 15 | 38 | 4.8 | 9.7 | 0.00 | 0.00 | 0.00 | 55 | 1008.6 |
| 20260507153545 | 15 | 139 | 3.2 | 11.3 | 0.00 | 0.00 | 0.00 | 54 | 1008.4 |
| 20260507153041 | 15 | 107 | 4.8 | 11.3 | 0.00 | 0.00 | 0.00 | 55 | 1008.5 |
| 20260507152537 | 15 | 151 | 1.6 | 9.7 | 0.00 | 0.00 | 0.00 | 57 | 1008.7 |
| 20260507152034 | 15 | 339 | 12.9 | 14.5 | 0.00 | 0.00 | 0.00 | 55 | 1008.7 |
| 20260507151530 | 14 | 166 | 3.2 | 4.8 | 0.00 | 0.00 | 0.00 | 60 | 1008.6 |
| 20260507151027 | 13 | 87 | 3.2 | 4.8 | 0.00 | 0.00 | 0.00 | 62 | 1008.7 |
| 20260507150524 | 13 | 142 | 3.2 | 4.8 | 0.00 | 0.00 | 0.00 | 59 | 1008.7 |
| 20260507150021 | 12 | 72 | 8.0 | 9.7 | 0.00 | 0.00 | 0.00 | 60 | 1009.0 |
| 20260507145516 | 13 | 61 | 3.2 | 11.3 | 0.00 | 0.00 | 0.00 | 60 | 1008.9 |
| 20260507145014 | 12 | 124 | 4.8 | 6.4 | 0.00 | 0.00 | 0.00 | 61 | 1008.8 |
| 20260507144510 | 12 | 74 | 6.4 | 12.9 | 0.00 | 0.00 | 0.00 | 61 | 1009.0 |
| 20260507144008 | 12 | 91 | 4.8 | 9.7 | 0.00 | 0.00 | 0.00 | 64 | 1008.9 |
| 20260507143505 | 12 | 145 | 1.6 | 11.3 | 0.00 | 0.00 | 0.00 | 65 | 1008.9 |
| 20260507143002 | 12 | 156 | 0.0 | 9.7 | 0.00 | 0.00 | 0.00 | 65 | 1009.4 |
| 20260507142457 | 12 | 99 | 3.2 | 9.7 | 0.00 | 0.00 | 0.00 | 66 | 1009.3 |
| 20260507141955 | 12 | 153 | 0.0 | 4.8 | 0.00 | 0.00 | 0.00 | 67 | 1009.4 |
| 20260507141450 | 11 | 136 | 1.6 | 4.8 | 0.00 | 0.00 | 0.00 | 67 | 1009.4 |
| 20260507140947 | 11 | 178 | 3.2 | 6.4 | 0.00 | 0.00 | 0.00 | 68 | 1009.5 |
| 20260507140444 | 11 | 117 | 4.8 | 9.7 | 0.00 | 0.00 | 0.00 | 68 | 1009.5 |
| 20260507135941 | 11 | 116 | 4.8 | 9.7 | 0.00 | 0.00 | 0.00 | 68 | 1009.6 |
| 20260507135438 | 11 | 72 | 9.7 | 12.9 | 0.00 | 0.00 | 0.00 | 69 | 1009.3 |
| 20260507134936 | 11 | 16 | 3.2 | 6.4 | 0.00 | 0.00 | 0.00 | 69 | 1009.4 |
| 20260507134432 | 11 | 82 | 3.2 | 4.8 | 0.00 | 0.00 | 0.00 | 70 | 1009.6 |
| 20260507133928 | 11 | 77 | 6.4 | 14.5 | 0.00 | 0.00 | 0.00 | 71 | 1009.5 |
| 20260507133424 | 11 | 68 | 4.8 | 6.4 | 0.00 | 0.00 | 0.00 | 75 | 1009.5 |
| 20260507132923 | 11 | 69 | 3.2 | 11.3 | 0.00 | 0.00 | 0.00 | 75 | 1009.6 |
| 20260507132419 | 11 | 88 | 6.4 | 12.9 | 0.00 | 0.00 | 0.00 | 74 | 1009.6 |
| 20260507131915 | 11 | 151 | 1.6 | 9.7 | 0.00 | 0.00 | 0.00 | 75 | 1009.8 |
| 20260507131413 | 11 | 128 | 4.8 | 6.4 | 0.00 | 0.00 | 0.00 | 75 | 1009.8 |
| 20260507130909 | 11 | 162 | 1.6 | 4.8 | 0.00 | 0.00 | 0.00 | 75 | 1009.8 |
| 20260507130406 | 11 | 87 | 3.2 | 6.4 | 0.00 | 0.00 | 0.00 | 74 | 1009.7 |
| 20260507125905 | 11 | 136 | 1.6 | 4.8 | 0.00 | 0.00 | 0.00 | 75 | 1009.9 |
| 20260507125403 | 11 | 137 | 1.6 | 4.8 | 0.00 | 0.00 | 0.00 | 74 | 1009.7 |
| 20260507124900 | 11 | 71 | 8.0 | 14.5 | 0.00 | 0.00 | 0.00 | 73 | 1009.8 |
| 20260507124355 | 11 | 84 | 3.2 | 6.4 | 0.00 | 0.00 | 0.00 | 74 | 1009.8 |
| 20260507123854 | 11 | 150 | 3.2 | 6.4 | 0.00 | 0.00 | 0.00 | 74 | 1009.8 |
| 20260507123351 | 11 | 123 | 3.2 | 4.8 | 0.00 | 0.00 | 0.00 | 74 | 1009.8 |
| 20260507122847 | 11 | 111 | 8.0 | 11.3 | 0.00 | 0.00 | 0.00 | 74 | 1009.7 |
| 20260507122343 | 11 | 56 | 6.4 | 11.3 | 0.00 | 0.00 | 0.00 | 75 | 1009.5 |
| 20260507121839 | 11 | 106 | 3.2 | 4.8 | 0.00 | 0.00 | 0.00 | 75 | 1009.4 |
| 20260507121335 | 11 | 114 | 1.6 | 9.7 | 0.00 | 0.00 | 0.00 | 75 | 1009.2 |
| 20260507120832 | 11 | 78 | 4.8 | 11.3 | 0.00 | 0.00 | 0.00 | 75 | 1009.2 |
| 20260507120328 | 11 | 72 | 6.4 | 6.4 | 0.00 | 0.00 | 0.00 | 75 | 1009.3 |
| 20260507115824 | 11 | 87 | 3.2 | 4.8 | 0.00 | 0.00 | 0.00 | 76 | 1009.3 |
| 20260507115320 | 11 | 111 | 3.2 | 6.4 | 0.00 | 0.00 | 0.00 | 76 | 1009.3 |
| 20260507114816 | 11 | 143 | 4.8 | 6.4 | 0.00 | 0.00 | 0.00 | 76 | 1009.2 |
| 20260507114313 | 11 | 144 | 0.0 | 4.8 | 0.00 | 0.00 | 0.00 | 76 | 1009.2 |
| 20260507113811 | 11 | 144 | 0.0 | 3.2 | 0.00 | 0.00 | 0.00 | 77 | 1009.1 |
| 20260507113308 | 11 | 123 | 4.8 | 4.8 | 0.00 | 0.00 | 0.00 | 77 | 1009.1 |
| 20260507112805 | 11 | 135 | 1.6 | 3.2 | 0.00 | 0.00 | 0.00 | 77 | 1008.9 |
| 20260507112306 | 11 | 142 | 1.6 | 4.8 | 0.00 | 0.00 | 0.00 | 77 | 1009.1 |
| 20260507111800 | 11 | 91 | 3.2 | 4.8 | 0.00 | 0.00 | 0.00 | 77 | 1009.1 |
| 20260507111256 | 11 | 113 | 3.2 | 4.8 | 0.00 | 0.00 | 0.00 | 77 | 1009.2 |
| 20260507110752 | 11 | 137 | 0.0 | 3.2 | 0.00 | 0.00 | 0.00 | 78 | 1009.1 |
| 20260507110249 | 11 | 145 | 0.0 | 3.2 | 0.00 | 0.00 | 0.00 | 79 | 1008.8 |
| 20260507105746 | 11 | 135 | 3.2 | 4.8 | 0.00 | 0.00 | 0.00 | 79 | 1008.8 |
| 20260507105241 | 11 | 120 | 3.2 | 4.8 | 0.00 | 0.00 | 0.00 | 79 | 1008.7 |
| 20260507104739 | 11 | 137 | 1.6 | 3.2 | 0.00 | 0.00 | 0.00 | 79 | 1008.6 |
| 20260507104236 | 11 | 152 | 1.6 | 1.6 | 0.00 | 0.00 | 0.00 | 79 | 1008.9 |
| 20260507103732 | 11 | 146 | 0.0 | 0.0 | 0.00 | 0.00 | 0.00 | 79 | 1008.7 |
| 20260507103228 | 11 | 145 | 0.0 | 1.6 | 0.00 | 0.00 | 0.00 | 79 | 1008.7 |
| 20260507102725 | 11 | 149 | 0.0 | 0.0 | 0.00 | 0.00 | 0.00 | 79 | 1008.8 |
| 20260507102221 | 11 | 148 | 0.0 | 0.0 | 0.00 | 0.00 | 0.00 | 79 | 1008.7 |
| 20260507101717 | 11 | 150 | 0.0 | 0.0 | 0.00 | 0.00 | 0.00 | 79 | 1008.6 |
| 20260507101213 | 11 | 145 | 1.6 | 3.2 | 0.00 | 0.00 | 0.00 | 79 | 1008.6 |
| 20260507100710 | 11 | 148 | 1.6 | 3.2 | 0.00 | 0.00 | 0.00 | 79 | 1008.7 |
| 20260507100208 | 11 | 146 | 0.0 | 0.0 | 0.00 | 0.00 | 0.00 | 79 | 1008.6 |
| 20260507095706 | 11 | 149 | 0.0 | 1.6 | 0.00 | 0.00 | 0.00 | 78 | 1008.5 |
| 20260507095202 | 11 | 120 | 1.6 | 1.6 | 0.00 | 0.00 | 0.00 | 78 | 1008.6 |
| 20260507094659 | 11 | 149 | 0.0 | 1.6 | 0.00 | 0.00 | 0.00 | 78 | 1008.4 |
| 20260507094156 | 11 | 146 | 1.6 | 1.6 | 0.00 | 0.00 | 0.00 | 77 | 1008.5 |
| 20260507093653 | 11 | 148 | 0.0 | 1.6 | 0.00 | 0.00 | 0.00 | 77 | 1008.6 |
| 20260507093152 | 11 | 137 | 1.6 | 4.8 | 0.00 | 0.00 | 0.00 | 77 | 1008.4 |
| 20260507092648 | 11 | 146 | 1.6 | 3.2 | 0.00 | 0.00 | 0.00 | 77 | 1008.5 |
| 20260507092144 | 11 | 145 | 0.0 | 3.2 | 0.00 | 0.00 | 0.00 | 77 | 1008.5 |
| 20260507091641 | 11 | 141 | 0.0 | 3.2 | 0.00 | 0.00 | 0.00 | 78 | 1008.4 |
| 20260507091137 | 11 | 140 | 1.6 | 3.2 | 0.00 | 0.00 | 0.00 | 77 | 1008.5 |
| 20260507090633 | 11 | 125 | 0.0 | 1.6 | 0.00 | 0.00 | 0.00 | 78 | 1008.5 |
| 20260507090131 | 11 | 134 | 3.2 | 3.2 | 0.00 | 0.00 | 0.00 | 78 | 1008.3 |
| 20260507085628 | 11 | 150 | 0.0 | 4.8 | 0.00 | 0.00 | 0.00 | 78 | 1008.2 |
| 20260507085124 | 11 | 104 | 4.8 | 4.8 | 0.00 | 0.00 | 0.00 | 78 | 1008.2 |
| 20260507084621 | 11 | 141 | 1.6 | 4.8 | 0.00 | 0.00 | 0.00 | 79 | 1008.3 |
| 20260507084118 | 11 | 143 | 3.2 | 3.2 | 0.00 | 0.00 | 0.00 | 79 | 1008.3 |
| 20260507083615 | 11 | 145 | 0.0 | 4.8 | 0.00 | 0.00 | 0.00 | 79 | 1007.9 |
| 20260507083112 | 11 | 146 | 1.6 | 4.8 | 0.00 | 0.00 | 0.00 | 79 | 1008.2 |
| 20260507082607 | 11 | 157 | 1.6 | 4.8 | 0.00 | 0.00 | 0.00 | 79 | 1008.3 |
| 20260507082104 | 11 | 122 | 3.2 | 4.8 | 0.00 | 0.00 | 0.00 | 79 | 1008.2 |
| 20260507081600 | 11 | 128 | 1.6 | 3.2 | 0.00 | 0.00 | 0.00 | 80 | 1008.2 |
| 20260507081057 | 11 | 148 | 3.2 | 4.8 | 0.00 | 0.00 | 0.00 | 80 | 1008.5 |
| 20260507080553 | 11 | 135 | 1.6 | 3.2 | 0.00 | 0.00 | 0.00 | 80 | 1008.6 |
| 20260507080050 | 11 | 128 | 3.2 | 6.4 | 0.00 | 0.00 | 0.00 | 79 | 1008.7 |
| 20260507075545 | 11 | 119 | 3.2 | 11.3 | 0.00 | 0.00 | 0.00 | 79 | 1008.6 |
| 20260507075041 | 11 | 127 | 3.2 | 6.4 | 0.00 | 0.00 | 0.00 | 79 | 1008.4 |
| 20260507074538 | 11 | 144 | 0.0 | 1.6 | 0.00 | 0.00 | 0.00 | 80 | 1008.3 |
| 20260507074037 | 11 | 157 | 1.6 | 6.4 | 0.00 | 0.00 | 0.00 | 79 | 1008.3 |
| 20260507073532 | 12 | 120 | 4.8 | 14.5 | 0.00 | 0.00 | 0.00 | 79 | 1008.3 |
| 20260507073029 | 12 | 102 | 4.8 | 6.4 | 0.00 | 0.00 | 0.00 | 80 | 1008.3 |
| 20260507072527 | 12 | 93 | 3.2 | 9.7 | 0.00 | 0.00 | 0.00 | 80 | 1008.3 |
| 20260507072024 | 12 | 187 | 3.2 | 6.4 | 0.00 | 0.00 | 0.00 | 80 | 1007.9 |
| 20260507071521 | 12 | 71 | 9.7 | 11.3 | 0.00 | 0.00 | 0.00 | 79 | 1007.7 |
| 20260507071018 | 12 | 96 | 3.2 | 11.3 | 0.00 | 0.00 | 0.00 | 80 | 1007.9 |
| 20260507070515 | 12 | 93 | 1.6 | 9.7 | 0.00 | 0.00 | 0.00 | 80 | 1007.8 |
| 20260507070013 | 12 | 28 | 14.5 | 17.7 | 0.00 | 0.00 | 0.00 | 80 | 1007.8 |
| 20260507065508 | 12 | 104 | 6.4 | 16.1 | 0.00 | 0.00 | 0.00 | 80 | 1007.9 |
| 20260507065005 | 12 | 104 | 4.8 | 16.1 | 0.00 | 0.00 | 0.00 | 81 | 1007.8 |
| 20260507064504 | 12 | 90 | 8.0 | 12.9 | 0.00 | 0.00 | 0.00 | 81 | 1007.7 |
| 20260507064001 | 12 | 88 | 6.4 | 6.4 | 0.00 | 0.00 | 0.00 | 81 | 1007.9 |
| 20260507063458 | 12 | 143 | 4.8 | 11.3 | 0.00 | 0.00 | 0.00 | 82 | 1008.0 |
| 20260507062955 | 13 | 82 | 3.2 | 12.9 | 0.00 | 0.00 | 0.00 | 82 | 1008.1 |
| 20260507062452 | 13 | 122 | 1.6 | 9.7 | 0.00 | 0.00 | 0.00 | 83 | 1008.0 |
| 20260507061950 | 13 | 98 | 4.8 | 6.4 | 0.00 | 0.00 | 0.00 | 84 | 1007.9 |
| 20260507061447 | 13 | 135 | 3.2 | 3.2 | 0.00 | 0.00 | 0.00 | 86 | 1007.9 |
| 20260507060946 | 13 | 134 | 3.2 | 6.4 | 0.00 | 0.00 | 0.00 | 86 | 1007.8 |
| 20260507060442 | 13 | 127 | 4.8 | 4.8 | 0.00 | 0.00 | 0.00 | 87 | 1007.8 |
| 20260507055939 | 13 | 123 | 4.8 | 9.7 | 0.00 | 0.00 | 0.00 | 87 | 1008.0 |
| 20260507055434 | 13 | 145 | 1.6 | 4.8 | 0.00 | 0.00 | 0.00 | 86 | 1008.2 |
| 20260507054931 | 13 | 146 | 3.2 | 6.4 | 0.00 | 0.00 | 0.00 | 86 | 1008.3 |
| 20260507054427 | 13 | 154 | 3.2 | 6.4 | 0.00 | 0.00 | 0.00 | 87 | 1008.4 |
| 20260507053925 | 13 | 130 | 3.2 | 6.4 | 0.00 | 0.00 | 0.00 | 87 | 1008.0 |
| 20260507053422 | 13 | 134 | 1.6 | 3.2 | 0.00 | 0.00 | 0.00 | 87 | 1008.1 |
| 20260507052921 | 13 | 147 | 1.6 | 3.2 | 0.00 | 0.00 | 0.00 | 86 | 1008.0 |
| 20260507052418 | 13 | 136 | 4.8 | 6.4 | 0.00 | 0.00 | 0.00 | 86 | 1007.6 |
| 20260507051914 | 13 | 112 | 6.4 | 11.3 | 0.00 | 0.00 | 0.00 | 87 | 1007.6 |
| 20260507051412 | 13 | 96 | 3.2 | 4.8 | 0.00 | 0.00 | 0.00 | 88 | 1007.8 |
| 20260507050909 | 13 | 67 | 4.8 | 6.4 | 0.00 | 0.00 | 0.00 | 87 | 1007.5 |
| 20260507050405 | 13 | 110 | 3.2 | 4.8 | 0.00 | 0.00 | 0.00 | 88 | 1007.6 |
| 20260507045902 | 13 | 137 | 3.2 | 4.8 | 0.00 | 0.00 | 0.00 | 88 | 1007.8 |
| 20260507045359 | 13 | 75 | 6.4 | 12.9 | 0.00 | 0.00 | 0.00 | 88 | 1007.5 |
| 20260507044856 | 13 | 33 | 6.4 | 11.3 | 0.00 | 0.00 | 0.00 | 89 | 1007.3 |
| 20260507044353 | 13 | 129 | 1.6 | 11.3 | 0.00 | 0.00 | 0.00 | 90 | 1007.1 |
| 20260507043848 | 13 | 125 | 0.0 | 3.2 | 0.00 | 0.00 | 0.00 | 90 | 1007.3 |
| 20260507043345 | 13 | 151 | 1.6 | 9.7 | 0.00 | 0.00 | 0.00 | 90 | 1007.3 |
| 20260507042842 | 13 | 127 | 1.6 | 9.7 | 0.00 | 0.00 | 0.00 | 90 | 1007.1 |
| 20260507042337 | 14 | 101 | 1.6 | 6.4 | 0.00 | 0.00 | 0.00 | 90 | 1006.6 |
| 20260507041834 | 14 | 89 | 6.4 | 9.7 | 0.00 | 0.00 | 0.00 | 90 | 1006.8 |
| 20260507041331 | 14 | 155 | 1.6 | 6.4 | 0.00 | 0.00 | 0.00 | 89 | 1006.5 |
| 20260507040828 | 15 | 134 | 6.4 | 17.7 | 0.00 | 0.00 | 0.00 | 90 | 1006.2 |
| 20260507040324 | 15 | 162 | 8.0 | 11.3 | 0.00 | 0.00 | 0.00 | 90 | 1006.4 |
| 20260507035820 | 15 | 129 | 3.2 | 6.4 | 0.00 | 0.33 | 0.33 | 89 | 1007.0 |
| 20260507035316 | 15 | 148 | 6.4 | 11.3 | 0.00 | 0.33 | 0.33 | 89 | 1007.1 |
| 20260507034814 | 15 | 79 | 1.6 | 3.2 | 0.00 | 0.33 | 0.33 | 88 | 1007.6 |
| 20260507034310 | 15 | 132 | 3.2 | 4.8 | 0.30 | 0.33 | 0.33 | 87 | 1007.5 |
| 20260507033809 | 16 | 147 | 1.6 | 4.8 | 0.97 | 0.33 | 0.33 | 86 | 1007.8 |
| 20260507033306 | 16 | 95 | 3.2 | 9.7 | 0.48 | 0.25 | 0.25 | 84 | 1007.6 |
| 20260507032803 | 16 | 137 | 1.6 | 3.2 | 0.00 | 0.18 | 0.18 | 83 | 1007.8 |
| 20260507032259 | 16 | 142 | 1.6 | 4.8 | 0.00 | 0.18 | 0.18 | 83 | 1007.7 |
| 20260507031755 | 16 | 161 | 0.0 | 3.2 | 0.00 | 0.18 | 0.18 | 83 | 1007.3 |
| 20260507031252 | 16 | 141 | 1.6 | 3.2 | 0.00 | 0.18 | 0.18 | 82 | 1007.2 |
| 20260507030749 | 16 | 135 | 0.0 | 4.8 | 0.00 | 0.18 | 0.18 | 82 | 1007.2 |
| 20260507030246 | 16 | 155 | 3.2 | 4.8 | 0.00 | 0.18 | 0.18 | 83 | 1006.9 |
| 20260507025743 | 16 | 145 | 0.0 | 0.0 | 0.00 | 0.18 | 0.18 | 83 | 1007.3 |
| 20260507025240 | 16 | 114 | 1.6 | 1.6 | 0.00 | 0.18 | 0.18 | 83 | 1007.1 |
| 20260507024739 | 17 | 138 | 0.0 | 3.2 | 0.00 | 0.18 | 0.18 | 83 | 1007.3 |
| 20260507024236 | 17 | 107 | 3.2 | 4.8 | 0.00 | 0.18 | 0.18 | 82 | 1007.1 |
| 20260507023731 | 17 | 133 | 1.6 | 1.6 | 0.00 | 0.18 | 0.18 | 81 | 1007.5 |
| 20260507023229 | 17 | 132 | 0.0 | 3.2 | 0.00 | 0.18 | 0.18 | 80 | 1007.1 |
| 20260507022726 | 17 | 133 | 1.6 | 1.6 | 0.00 | 0.18 | 0.18 | 79 | 1007.0 |
| 20260507022221 | 17 | 172 | 1.6 | 3.2 | 0.00 | 0.18 | 0.18 | 79 | 1007.0 |
| 20260507021718 | 17 | 149 | 0.0 | 1.6 | 0.00 | 0.18 | 0.18 | 79 | 1006.8 |
| 20260507021213 | 17 | 155 | 1.6 | 4.8 | 0.00 | 0.18 | 0.18 | 79 | 1006.6 |
| 20260507020712 | 17 | 157 | 3.2 | 6.4 | 0.00 | 0.18 | 0.18 | 78 | 1006.4 |
| 20260507020208 | 17 | 149 | 0.0 | 0.0 | 0.00 | 0.18 | 0.18 | 78 | 1006.2 |
| 20260507015706 | 17 | 126 | 1.6 | 4.8 | 0.00 | 0.18 | 0.18 | 78 | 1006.3 |
| 20260507015203 | 17 | 127 | 3.2 | 3.2 | 0.00 | 0.18 | 0.18 | 79 | 1006.6 |
| 20260507014659 | 17 | 72 | 3.2 | 4.8 | 0.00 | 0.18 | 0.18 | 79 | 1006.7 |
| 20260507014155 | 17 | 135 | 1.6 | 3.2 | 0.00 | 0.18 | 0.18 | 79 | 1006.8 |
| 20260507013653 | 17 | 144 | 1.6 | 3.2 | 0.00 | 0.18 | 0.18 | 79 | 1006.8 |
| 20260507013150 | 17 | 91 | 3.2 | 4.8 | 0.00 | 0.18 | 0.18 | 79 | 1006.7 |
| 20260507012648 | 17 | 150 | 1.6 | 3.2 | 0.00 | 0.18 | 0.18 | 79 | 1006.4 |
| 20260507012142 | 17 | 141 | 3.2 | 6.4 | 0.00 | 0.18 | 0.18 | 79 | 1006.2 |
| 20260507011641 | 17 | 171 | 6.4 | 9.7 | 0.00 | 0.18 | 0.18 | 79 | 1006.0 |
| 20260507011137 | 18 | 135 | 8.0 | 11.3 | 0.00 | 0.18 | 0.18 | 78 | 1005.9 |
| 20260507010631 | 18 | 145 | 8.0 | 11.3 | 0.00 | 0.18 | 0.18 | 77 | 1005.7 |
| 20260507010128 | 18 | 137 | 1.6 | 6.4 | 0.00 | 0.18 | 0.18 | 75 | 1006.3 |
| 20260507005625 | 18 | 142 | 6.4 | 9.7 | 0.00 | 0.18 | 0.18 | 73 | 1006.4 |
| 20260507005121 | 18 | 157 | 3.2 | 4.8 | 0.00 | 0.18 | 0.18 | 75 | 1006.2 |
| 20260507004618 | 18 | 154 | 1.6 | 4.8 | 0.00 | 0.18 | 0.18 | 76 | 1006.7 |
| 20260507004116 | 18 | 160 | 1.6 | 4.8 | 0.00 | 0.18 | 0.18 | 75 | 1006.8 |
| 20260507003612 | 18 | 130 | 3.2 | 4.8 | 0.00 | 0.18 | 0.18 | 73 | 1006.5 |
| 20260507003107 | 18 | 140 | 3.2 | 3.2 | 0.00 | 0.18 | 0.18 | 74 | 1006.7 |
| 20260507002603 | 18 | 146 | 1.6 | 9.7 | 0.00 | 0.18 | 0.18 | 74 | 1006.5 |